Home   Weather   Hamilton   Past weeks

Flag for Canada Past Weather in Hamilton, Ontario, Canada — Yesterday and Last 2 Weeks

36 °F

Passing clouds.

Feels Like: 29 °F
Forecast: 40 / 48 °F
Wind: 9 mph from Northwest

Location: Hamilton Airport

Current Time: Oct 22, 2016 at 7:56:44 AM

Latest Report: Oct 22, 2016 at 7:00 AM

Visibility: 15 mi

Pressure: 29.86 "Hg

Humidity: 87%

Dew Point: 32 °F

Location of HamiltonLocation

Past Weather in Hamilton — Graph


Hamilton Temperature Yesterday

Maximum temperature yesterday: 52 °F (at 12:00 AM)
Minimum temperature yesterday: 43 °F (at 10:00 PM)
Average temperature yesterday: 48 °F

High & Low Weather Summary for the Past Weeks

High75 °F (Oct 17, 5:00 PM)100% (Oct 7, 6:00 AM)30.50 "Hg (Oct 7, 6:00 AM)
Low34 °F (Oct 10, 6:00 AM)41% (Oct 10, 3:00 PM)29.59 "Hg (Oct 18, 2:00 PM)
Average56 °F78%30.09 "Hg
* Reported Oct 7 6:00 AM — Oct 22 6:00 AM, Hamilton, Weather by CustomWeather, © 2016

Note: Actual official high and low records may vary slightly from our data, if they occured in-between our weather recording intervals... More about our weather records


Hamilton Weather History for the Previous 24 Hours

Scroll right to see more
Time TempWeatherWind HumidityBarometerVisibility
6:00 AM
Sat, Oct 22
36 °FPassing clouds.10 mph87%29.86 "Hg15 mi
5:00 AM36 °FPassing clouds.6 mph87%29.86 "Hg15 mi
4:00 AM37 °FPassing clouds.7 mph87%29.87 "Hg15 mi
3:00 AM39 °FPassing clouds.6 mph87%29.88 "Hg15 mi
2:00 AM41 °FMostly cloudy.9 mph81%29.88 "Hg15 mi
1:00 AM41 °FPartly cloudy.10 mph81%29.88 "Hg15 mi
12:00 AM43 °FOvercast.8 mph81%29.89 "Hg15 mi
11:00 PM
Fri, Oct 21
43 °FMostly cloudy.8 mph81%29.90 "Hg15 mi
10:00 PM43 °FMostly cloudy.9 mph81%29.91 "Hg15 mi
9:00 PM45 °FMostly cloudy.13 mph76%29.91 "Hg15 mi
8:00 PM45 °FMostly cloudy.17 mph76%29.91 "Hg15 mi
7:00 PM45 °FPassing clouds.14 mph81%29.91 "Hg15 mi
6:00 PM46 °FBroken clouds.12 mph82%29.90 "Hg15 mi
5:00 PM46 °FCloudy.13 mph82%29.90 "Hg15 mi
4:00 PM45 °FLight rain. Broken clouds.14 mph93%29.90 "Hg15 mi
3:00 PM45 °FLight rain. More clouds than sun.10 mph93%29.88 "Hg15 mi
2:00 PM45 °FLight rain. Fog.16 mph93%29.90 "Hg5 mi
1:48 PM45 °FLight rain. Fog.15 mph93%29.91 "Hg5 mi
1:00 PM46 °FLight rain. Mostly cloudy.10 mph93%29.92 "Hg15 mi
12:00 PM46 °FLight rain. Mostly cloudy.12 mph93%29.90 "Hg15 mi
11:00 AM48 °FMostly cloudy.17 mph94%29.88 "Hg15 mi
10:00 AM50 °FLight rain. Cloudy.13 mph94%29.88 "Hg15 mi
9:00 AM50 °FLight rain. Mostly cloudy.10 mph94%29.89 "Hg15 mi
8:00 AM50 °FLight rain. Cloudy.13 mph94%29.88 "Hg15 mi
7:00 AM50 °FMostly cloudy.14 mph94%29.88 "Hg15 mi
Weather by CustomWeather, © 2016

See weather overviewHow to use our weather pages